Ephrata, WA

6:02 PM PDT on September 16, 2019 (GMT -0700)
Ephrata Municipal

Weather History for KEPH - August, 2019

Change the Weather History Date:

Saturday, August 24, 2019

  Actual Average Record
Temperature  
Mean Temperature 76 °F 71 °F  
Max Temperature 87 °F 85 °F 104 °F (1966)
Min Temperature 64 °F 57 °F 42 °F (1992)
Degree Days  
Heating Degree Days 0 0  
Month to date heating degree days 0 0  
Since 1 June heating degree days 28 68  
Since 1 July heating degree days 0 8  
Cooling Degree Days 11 6  
Month to date cooling degree days 269 215  
Year to date cooling degree days 749 655  
Since 1 June cooling degree days 690 618  
Growing Degree Days 24 (Base 50)    
Moisture  
Dew Point 40 °F    
Average Humidity 32    
Maximum Humidity 44    
Minimum Humidity 19    
Precipitation  
Precipitation 0.00 in 0.01 in 0.24 in (1968)
Month to date precipitation 0.29 0.16  
Year to date precipitation 3.72 4.63  
Sea Level Pressure  
Sea Level Pressure 29.79 in    
Wind  
Wind Speed 9 mph (WNW)    
Max Wind Speed 24 mph    
Max Gust Speed 30 mph    
Visibility 10 miles    
Events      
T = Trace of Precipitation, MM = Missing Value Source: NWS Daily Summary

Daily Weather History Graph

Daily Weather History Graph

Search for Another Location

Airport or City:

Astronomy

Aug. 24, 2019 Rise Set
Actual Time 6:06 AM PDT 7:53 PM PDT
Civil Twilight 5:33 AM PDT 8:26 PM PDT
Nautical Twilight 4:53 AM PDT 9:05 PM PDT
Astronomical Twilight 4:09 AM PDT 9:49 PM PDT
Moon No Moon Rise 3:26 PM PDT (8/24)
Length of Visible Light 14h 52m
Length of Day
13h 47m
Last Quarter, 38% of the Moon is Illuminated
Aug 24
Last Quarter
Aug 30
New
Sep 5
First Quarter
Sep 13
Full
Sep 21
Last Quarter

Hourly Weather History & Observations

Time (PDT) Temp. Dew Point Humidity Pressure Visibility Wind Dir Wind Speed Gust Speed Precip Events Conditions
12:53 AM 72.0 °F 46.9 °F 41% 29.76 in 10.0 mi NNW 6.9 mph - N/A   Clear
1:53 AM 70.0 °F 46.9 °F 44% 29.76 in 10.0 mi North 4.6 mph - N/A   Clear
2:53 AM 71.1 °F 42.1 °F 35% 29.76 in 10.0 mi NNW 4.6 mph - N/A   Clear
3:53 AM 71.1 °F 34.0 °F 26% 29.76 in 10.0 mi WNW 4.6 mph - N/A   Clear
4:53 AM 69.1 °F 32.0 °F 25% 29.76 in 10.0 mi NW 3.5 mph - N/A   Clear
5:53 AM 66.0 °F 34.0 °F 30% 29.78 in 10.0 mi Calm Calm - N/A   Clear
6:53 AM 64.9 °F 37.9 °F 37% 29.79 in 10.0 mi Calm Calm - N/A   Clear
7:53 AM 69.1 °F 42.1 °F 38% 29.81 in 10.0 mi West 3.5 mph - N/A   Clear
8:53 AM 73.9 °F 36.0 °F 25% 29.80 in 10.0 mi West 3.5 mph - N/A   Clear
9:53 AM 77.0 °F 39.0 °F 25% 29.79 in 10.0 mi Calm Calm - N/A   Clear
10:53 AM 80.1 °F 39.9 °F 24% 29.80 in 10.0 mi WNW 4.6 mph - N/A   Clear
11:53 AM 82.0 °F 39.9 °F 22% 29.80 in 10.0 mi NE 8.1 mph - N/A   Clear
12:53 PM 84.0 °F 39.0 °F 20% 29.80 in 10.0 mi WNW 8.1 mph - 0.00 in   Clear
1:53 PM 84.9 °F 39.9 °F 20% 29.79 in 10.0 mi SW 12.7 mph 25.3 mph N/A   Clear
2:53 PM 84.9 °F 39.0 °F 20% 29.79 in 10.0 mi West 11.5 mph - N/A   Clear
3:15 PM 84.9 °F 41.0 °F 21% 29.82 in 10.0 mi SW 15.0 mph 21.9 mph N/A   Clear
3:53 PM 84.9 °F 42.1 °F 22% 29.79 in 10.0 mi WSW 15.0 mph 21.9 mph N/A   Clear
4:53 PM 84.9 °F 43.0 °F 23% 29.80 in 10.0 mi SW 11.5 mph - N/A   Clear
5:53 PM 84.9 °F 37.0 °F 18% 29.80 in 10.0 mi WNW 16.1 mph - N/A   Clear
6:53 PM 82.0 °F 39.0 °F 22% 29.81 in 10.0 mi WNW 15.0 mph 24.2 mph N/A   Clear
7:53 PM 77.0 °F 39.9 °F 26% 29.82 in 10.0 mi WNW 12.7 mph - N/A   Clear
8:53 PM 73.0 °F 39.9 °F 30% 29.83 in 10.0 mi WNW 16.1 mph 24.2 mph N/A   Clear
10:53 PM 71.1 °F 39.9 °F 32% 29.83 in 10.0 mi NW 18.4 mph 23.0 mph N/A   Clear
11:53 PM 70.0 °F 42.1 °F 36% 29.83 in 10.0 mi WNW 11.5 mph - N/A   Clear